SENTINEL-5P

Last updated on Thu Mar 05 2026 00:02:39 GMT+0000 (Coordinated Universal Time)

1 42969U 17064A 26063.45922626 .00000120 00000+0 77682-4 0 9997 2 42969 98.7876 6.3590 0001100 80.6648 279.4652 14.19547696434709
UTC large
Height (km)
Speed (km/s)
/
Latitude / Longitude
Inclination (degrees)
Orbital Period (minutes)
Azimuth
Elevation
Range (km)
Doppler Factor

Next 0 passes for location: London (51.5072 / 0.1276)

Sorry there are no passes over London.